Location: Chełm
(51.1339°N, 23.4725°E)
Time: 06:59:27
(UTC+01:00)

ISS - Pass Details

Date: 30 January 2019
Orbit: 403 x 411 km, 51.6° (Epoch: 22 February)

Event Time Altitude Azimuth Distance (km) Brightness Sun altitude
Rises 17:25:20 0° 257° (WSW) 2,331 2.3 -11.5°
Reaches altitude 10° 17:27:25 10° 257° (WSW) 1,473 0.6 -11.8°
Maximum altitude 17:30:43 86° 167° (SSE) 416 -3.8 -12.3°
Enters shadow 17:32:41 23° 80° (E) 936 -2.6 -12.6°
